Weather History for KCEF - October, 2011

Change the Weather History Date:

Sunday, October 30, 2011

  Actual Average Record
Temperature  
Mean Temperature 34 °F -  
Max Temperature 44 °F 53 °F 67 °F (2012)
Min Temperature 23 °F 34 °F 23 °F (2011)
Degree Days  
Heating Degree Days 32    
Moisture  
Dew Point 29 °F    
Average Humidity 89    
Maximum Humidity 100    
Minimum Humidity 47    
Precipitation  
Precipitation 0.04 in - - ()
Snow  
Snow 0.00 in - - ()
Snow Depth 11.00 in    
Sea Level Pressure  
Sea Level Pressure 30.04 in    
Wind  
Wind Speed 13 mph (North)    
Max Wind Speed 22 mph    
Max Gust Speed 30 mph    
Visibility 4 miles    
Events Rain    
Averages and records for this station are not official NWS values.
T = Trace of Precipitation, MM = Missing Value Source: NWS Daily Summary

Daily Weather History Graph

Daily Weather History Graph

Search for Another Location

Airport or City:

Trip Planner

Search our weather history database for the weather conditions in past years. The results will help you decide how hot, cold, wet, or windy it might be!

Date:

Astronomy

Oct. 30, 2011 Rise Set
Actual Time 7:20 AM EDT 5:46 PM EDT
Civil Twilight 6:51 AM EDT 6:15 PM EDT
Nautical Twilight 6:18 AM EDT 6:48 PM EDT
Astronomical Twilight 5:45 AM EDT 7:21 PM EDT
Moon 11:40 AM EDT (10/30) 9:09 PM EDT (10/30)
Length of Visible Light 11h 24m
Length of Day
10h 26m
Waxing Crescent, 20% of the Moon is Illuminated
Oct 30
Waxing Crescent
Nov 2
First Quarter
Nov 10
Full
Nov 18
Last Quarter
Nov 25
New

Hourly Weather History & Observations

Time (EDT) Temp. Windchill Dew Point Humidity Pressure Visibility Wind Dir Wind Speed Gust Speed Precip Events Conditions
12:03 AM 32.0 °F 20.1 °F 30.2 °F 93% 29.87 in 1.2 mi NNE 19.6 mph - N/A   Mostly Cloudy
12:06 AM 32.0 °F 20.8 °F 30.2 °F 93% 29.87 in 1.2 mi NNE 17.3 mph - N/A   Scattered Clouds
12:07 AM 32.0 °F 20.5 °F 30.2 °F 93% 29.87 in 1.2 mi NNE 18.4 mph 24.2 mph N/A   Scattered Clouds
12:08 AM 32.0 °F 19.8 °F 30.2 °F 93% 29.87 in 1.0 mi NNE 20.7 mph 25.3 mph N/A   Mist
12:10 AM 32.0 °F 19.5 °F 30.2 °F 93% 29.87 in 1.0 mi NNE 21.9 mph - N/A   Mist
12:15 AM 32.0 °F 20.1 °F 30.2 °F 93% 29.86 in 1.0 mi NNE 19.6 mph 25.3 mph N/A   Mist
12:19 AM 32.0 °F 20.8 °F 30.2 °F 93% 29.86 in 1.0 mi NNE 17.3 mph 25.3 mph N/A   Mist
12:21 AM 32.0 °F 20.1 °F 30.2 °F 93% 29.85 in 1.2 mi NNE 19.6 mph 25.3 mph N/A   Partly Cloudy
12:30 AM 32.0 °F 20.8 °F 30.2 °F 93% 29.85 in 1.2 mi NNE 17.3 mph - N/A   Clear
12:47 AM 32.0 °F 21.6 °F 30.2 °F 93% 29.84 in 1.2 mi North 15.0 mph 24.2 mph N/A Rain Light Rain
12:50 AM 32.0 °F 20.8 °F 30.2 °F 93% 29.84 in 1.5 mi North 17.3 mph - N/A Rain Light Rain
12:55 AM 32.4 °F 22.1 °F 30.9 °F 94% 29.84 in 1.5 mi North 15.0 mph 26.5 mph 0.02 in   Clear
12:56 AM 32.0 °F 21.2 °F 30.2 °F 93% 29.84 in 1.8 mi North 16.1 mph 26.5 mph N/A Rain Rain
1:04 AM 32.0 °F 20.5 °F 30.2 °F 93% 29.83 in 1.5 mi North 18.4 mph 25.3 mph N/A Rain Rain
1:08 AM 32.0 °F 20.8 °F 30.2 °F 93% 29.83 in 1.2 mi North 17.3 mph 26.5 mph N/A Rain Rain
1:11 AM 32.0 °F 19.5 °F 30.2 °F 93% 29.83 in 1.2 mi North 21.9 mph 29.9 mph N/A Rain Rain
1:15 AM 32.0 °F 21.6 °F 30.2 °F 93% 29.84 in 1.2 mi North 15.0 mph 29.9 mph N/A Rain Rain
1:24 AM 32.0 °F 21.6 °F 30.2 °F 93% 29.83 in 1.5 mi North 15.0 mph 25.3 mph N/A Rain Rain
1:27 AM 32.0 °F 21.2 °F 30.2 °F 93% 29.84 in 1.5 mi North 16.1 mph 25.3 mph N/A Rain Rain
1:33 AM 32.0 °F 21.2 °F 30.2 °F 93% 29.84 in 1.8 mi North 16.1 mph 23.0 mph N/A Rain Rain
1:38 AM 32.0 °F 20.8 °F 30.2 °F 93% 29.84 in 2.0 mi North 17.3 mph 24.2 mph N/A Rain Rain
1:44 AM 32.0 °F 20.5 °F 30.2 °F 93% 29.84 in 2.5 mi North 18.4 mph 25.3 mph N/A Rain Rain
1:55 AM 32.7 °F 22.1 °F 30.9 °F 93% 29.84 in 2.5 mi North 16.1 mph 25.3 mph 0.02 in Rain Light Rain
2:05 AM 32.0 °F 21.6 °F 30.2 °F 93% 29.84 in 3.0 mi North 15.0 mph 24.2 mph N/A Rain Light Freezing Rain
2:23 AM 32.0 °F 21.6 °F 30.2 °F 93% 29.85 in 4.0 mi North 15.0 mph 24.2 mph N/A Rain Light Rain
2:55 AM 33.1 °F - 30.7 °F 91% 29.86 in - North - - 0.00 in Rain Light Rain
3:00 AM 33.8 °F - 30.2 °F 87% 29.86 in - North - - N/A Rain Light Rain
3:25 AM 33.8 °F - 30.2 °F 87% 29.85 in - North - - N/A   Light Drizzle
3:32 AM 33.8 °F - 30.2 °F 87% 29.85 in - North - - N/A Rain Light Rain
3:46 AM 33.8 °F - 30.2 °F 87% 29.86 in - North - - N/A Rain Light Rain
3:55 AM 33.3 °F - 30.6 °F 90% 29.86 in - North - - 0.00 in Rain Light Rain
3:56 AM 33.8 °F - 30.2 °F 87% 29.86 in - North - - N/A Rain Light Rain
4:01 AM 33.8 °F - 30.2 °F 87% 29.86 in - North - - N/A   Overcast
4:08 AM 33.8 °F - 30.2 °F 87% 29.86 in - North - - N/A   Overcast
4:55 AM 33.1 °F - 30.4 °F 90% 29.86 in - North - - 0.00 in   Scattered Clouds
5:55 AM 33.3 °F - 29.3 °F 85% 29.88 in - North - - N/A   Clear
6:55 AM 30.6 °F - 28.0 °F 90% 29.91 in - North - - N/A   Partly Cloudy
7:55 AM 32.0 °F 26.4 °F 27.7 °F 84% 29.96 in 10.0 mi NNW 5.8 mph - N/A   Scattered Clouds
8:55 AM 32.0 °F 28.7 °F 28.0 °F 85% 30.00 in 9.0 mi North 3.5 mph - N/A   Clear
9:55 AM 34.0 °F 26.0 °F 29.8 °F 85% 30.03 in 8.0 mi NW 10.4 mph - N/A   Clear
10:04 AM 35.6 °F 28.6 °F 30.2 °F 81% 30.04 in 10.0 mi NW 9.2 mph - N/A   Clear
10:36 AM 37.4 °F 29.3 °F 30.2 °F 75% 30.05 in 10.0 mi NW 12.7 mph - N/A   Clear
10:55 AM 38.7 °F 31.8 °F 30.6 °F 73% 30.06 in 10.0 mi NNW 10.4 mph - 0.00 in   Clear
11:55 AM 41.0 °F 35.2 °F 30.2 °F 65% 30.07 in 10.0 mi NNW 9.2 mph - N/A   Clear
12:55 PM 42.6 °F 34.3 °F 27.1 °F 54% 30.09 in 10.0 mi NW 18.4 mph 24.2 mph N/A   Clear
1:55 PM 43.5 °F 36.7 °F 24.6 °F 47% 30.12 in 10.0 mi NNW 13.8 mph 26.5 mph N/A   Clear
2:55 PM 42.3 °F 33.8 °F 27.1 °F 55% 30.14 in 10.0 mi WNW 18.4 mph - N/A   Clear
3:55 PM 42.8 °F 36.2 °F 27.1 °F 54% 30.16 in 10.0 mi NNW 12.7 mph 20.7 mph N/A   Clear
4:55 PM 43.9 °F 41.3 °F 26.4 °F 50% 30.18 in 10.0 mi NNE 4.6 mph - N/A   Clear
5:55 PM 40.5 °F - 27.1 °F 59% 30.19 in 10.0 mi Calm Calm - N/A   Clear
6:55 PM 32.4 °F - 29.3 °F 88% 30.22 in 10.0 mi Calm Calm - N/A   Clear
7:55 PM 30.7 °F - 28.2 °F 90% 30.24 in 10.0 mi Calm Calm - N/A   Clear
8:43 PM 28.4 °F - 28.4 °F 100% 30.26 in 2.0 mi Calm Calm - N/A   Clear
8:44 PM 28.4 °F - 28.4 °F 100% 30.27 in 1.8 mi Calm Calm - N/A   Clear
8:45 PM 28.4 °F - 28.4 °F 100% 30.27 in 1.5 mi Calm Calm - N/A   Clear
8:48 PM 28.4 °F - 28.4 °F 100% 30.27 in 1.2 mi Calm Calm - N/A   Clear
8:50 PM 28.4 °F - 28.4 °F 100% 30.27 in 1.5 mi Calm Calm - N/A   Clear
8:53 PM 28.4 °F - 28.4 °F 100% 30.27 in 2.0 mi Calm Calm - N/A   Clear
8:55 PM 28.8 °F - 27.9 °F 96% 30.27 in 3.0 mi Calm Calm - N/A   Clear
9:14 PM 28.4 °F - 26.6 °F 93% 30.27 in 2.5 mi Calm Calm - N/A   Clear
9:20 PM 26.6 °F - 26.6 °F 100% 30.28 in 2.0 mi Calm Calm - N/A   Clear
9:22 PM 28.4 °F - 26.6 °F 93% 30.28 in 2.5 mi Calm Calm - N/A   Clear
9:24 PM 26.6 °F - 26.6 °F 100% 30.28 in 3.0 mi Calm Calm - N/A   Clear
9:55 PM 26.4 °F - 25.5 °F 96% 30.29 in 4.0 mi Calm Calm - N/A   Clear
9:57 PM 26.6 °F - 24.8 °F 93% 30.30 in 2.5 mi Calm Calm - N/A   Clear
10:02 PM 26.6 °F - 26.6 °F 100% 30.30 in 2.0 mi Calm Calm - N/A   Clear
10:06 PM 24.8 °F - 24.8 °F 100% 30.30 in 2.5 mi Calm Calm - N/A   Clear
10:09 PM 24.8 °F - 24.8 °F 100% 30.30 in 3.0 mi Calm Calm - N/A   Clear
10:50 PM 26.6 °F - 24.8 °F 93% 30.31 in 2.5 mi Calm Calm - N/A   Clear
10:51 PM 26.6 °F - 24.8 °F 93% 30.31 in 2.0 mi Calm Calm - N/A   Clear
10:52 PM 26.6 °F - 24.8 °F 93% 30.31 in 1.8 mi Calm Calm - N/A   Clear
10:55 PM 25.5 °F - 24.4 °F 96% 30.31 in 1.8 mi Calm Calm - N/A   Clear
10:57 PM 24.8 °F - 24.8 °F 100% 30.31 in 2.0 mi Calm Calm - N/A   Clear
10:59 PM 26.6 °F - 24.8 °F 93% 30.31 in 2.5 mi Calm Calm - N/A   Clear
11:00 PM 26.6 °F - 24.8 °F 93% 30.31 in 3.0 mi Calm Calm - N/A   Clear
11:55 PM 23.9 °F - 22.5 °F 94% 30.32 in 10.0 mi Calm Calm - N/A   Clear